Find Starlink 34886

NORAD ID: 65683 Int'l Des: 2025-212 Owner: SPXS Country: US Constellation: starlink operational
LEOCIRCULAR

当前视图

正在加载3D地球...

About Starlink 34886

Starlink 34886 (NORAD 65683) is a starlink constellation satellite (v2 mini) launched Sep 21, 2025 by SPXS of US. It operates in LEO, CIRCULAR orbit with a mass of 575.00 kg.

关于 Starlink 34886

正在加载描述...

即将过境

Passes for default location (London). Set your location on the main map for personalized predictions.

高度历史

Loading altitude history...

两行轨道根数

1 65683U 25212H 26192.20413653 .00019189 00000-0 62821-3 0 9994
2 65683 53.1569 131.2907 0001286 97.0676 263.0472 15.31716588 46115
Epoch: Jul 11, 2026 • Age: 22 hours

当前状态

高度 476.0 km
远地点 / 近地点 N/A
速度 7.63 km/s
星下点 52.19°N, 105.75°W
发射日期 Sep 21, 2025
运行时间 0.8 years
类型 internet

技术详情

分类 Payload
质量 575.00 kg
干质量 530.00 kg
总质量 575.00 kg
长度 0.30 m
直径 4.10 m
跨度 29.00 m
形状 Box + pan
制造商 SPXS
平台类型 Starlink V2MO
阶段状态 In Orbit
所有者/国家 SPXS/US

Most Searched